User: anonymous   Login
Location: Darlington Observatory
(36.4817°N, 105.8156°W)
Time: 20:39:30
(UTC-06:00)
Language:

NOSS 3-3 (A) - Orbit

View from above orbital plane
View from above orbital plane
View from above satellite
View from above satellite

Ground track
Ground track

The orbit data is extracted from the following two-line orbital elements,

1 28537U 05004A   17266.11940791 0.00000000  00000-0  00000-0 0    01
2 28537  63.4244 298.7909 0274000 358.3506   1.6493 13.40732825    05
Epoch (UTC): 23 September 2017 02:51:56
Eccentricity: 0.0274000
inclination: 63.4244°
perigee height: 901 km
apogee height: 1311 km
right ascension of ascending node: 298.7909°
argument of perigee: 358.3506°
revolutions per day: 13.40732825
mean anomaly at epoch: 1.6493°
orbit number at epoch: 0

The dashed part of the orbit path shows where the satellite is in the earth's shadow,  

DLR